Location: ?
(35.2180°N, 139.6392°E)
Time: 10:32:59
(UTC+00:00)

FENGYUN 3A - Pass Details

Date: 05 August 2024
Orbit: 821 x 834 km, 98.6° (Epoch: 18 September)

Event Time Altitude Azimuth Distance (km) Brightness Sun altitude
Rises 16:36:57 0° 17° (NNE) 3,388 7.9 -31.9°
Reaches altitude 10° 16:39:22 10° 21° (NNE) 2,450 6.9 -31.7°
Enters shadow 16:44:08 55° 73° (ENE) 995 4.2 -31.2°
